COSMOS 2279

导读

**COSMOS 2279卫星摘要** COSMOS 2279(宇宙2279)是独联体(CIS)继承苏联航天遗产后,于1994年4月26日发射的人造卫星,隶属于俄罗斯“宇宙号”系列卫星家族。该系列是全球规模最大的卫星集群,涵盖多类军用与试验任务。作为系列中的一员,它延续了苏联/俄罗斯长期开展空间技术探索的传统,承担特定轨道测试或军事侦察任务,是冷战后独联体航天活动的组成部分。

Basic Information
目录编号:
23092
目录名称:
COSMOS 2279
国际标识:
1994-024A
轨道中心:
EARTH
卫星名称:
COSMOS 2279
卫星全名:
--
卫星状态:
在轨 (已飞行11735 天)
发射日期:
1994-04-26 UTC
国别 :
俄罗斯(独联体) (CIS)
星等 :
--
Orbit Information
数据来源 国际轨道数据 AOE轨道数据
星历时间 2026-06-12T13:12:48+0800
17小时前
查看轨道信息
2026-06-10T07:00:00+0800
2天前
查看轨道信息
半长轴 7353.941km 7353.94km
偏心率 0.0033639 0.0033494
轨道倾角 82.949° 82.950°
近地点辐角 264.995° 271.398°
升交点赤经 218.432° 220.106°
平近点角 94.737° 59.756°
近地点 951.066km 951.171km
远地点 1000.542km 1000.435km
周期 104.602分钟 104.602分钟
每日圈数 13.766469 13.766472
Detailed Information
使用方式:
暂无
2D Orbit Map
3D Orbit Map
Orbit Altitude Analysis Chart
Orbit Inclination Analysis Chart
Orbit Comprehensive Analysis Chart
View Comprehensive Chart